Zurück zum Katalog

VELOX 1

AktivWissenschaftPO
NORAD 40057·PAYLOAD·🇸🇬 Singapore

Gestartet Jun 30, 2014 von Satish Dhawan Space Centre

Loading…

Nächste Überflüge (nächste 24 Stunden)

TLE

AktuellSource: Space-Track

Epoche: Sep 14, 2026, 21:14 UTC

1 40057U 14034E   26257.88530209  .00003566  00000-0  30293-3 0  9995
2 40057  98.2432 167.9783 0006620 341.4903  18.6076 14.98570350660030

Verfolge VELOX 1 in Echtzeit mit AllMySat

Download on the App Store